Retour au catalogue

COSMOS 2251 DEB

ActifLEO
NORAD 35959·DEBRIS·🇷🇺 Russia

Lancé Jun 16, 1993 depuis Plesetsk Cosmodrome

Loading…

Prochains Passages (prochaines 24 heures)

TLE

FraisSource: Space-Track

Époque: Sep 13, 2026, 10:23 UTC

1 35959U 93036AUZ 26256.43323835  .00000152  00000-0  63198-4 0  9993
2 35959  74.0334 169.1284 0022589 189.0439 171.0309 14.34287075888663

Suivez COSMOS 2251 DEB en temps réel avec AllMySat

Download on the App Store